W4CPD Weather Reports


time (UTC)temp
C
wind
direction
speed
KPH
gust
KPH
rain 1hr
cm
rain 24hr
cm
rain mn
cm
humidity
%
barometer
mb
20211025033513 20 136 1.6 12.9 0.00 0.00 0.00 97 1016.1
20211025033017 20 0 0.0 6.4 0.00 0.00 0.00 97 1016.0
20211025032512 20 0 0.0 6.4 0.00 0.00 0.00 97 1016.2
20211025032013 20 0 0.0 6.4 0.00 0.00 0.00 97 1016.1
20211025031540 20 0 0.0 8.0 0.00 0.00 0.00 96 1016.3
20211025031015 20 0 0.0 12.9 0.00 0.00 0.00 96 1016.2
20211025030516 20 0 0.0 12.9 0.00 0.00 0.00 96 1016.1
20211025030053 20 0 1.6 12.9 0.00 0.00 0.00 96 1016.1
20211025025518 20 52 1.6 14.5 0.00 0.00 0.00 96 1016.2
20211025025013 20 0 3.2 16.1 0.00 0.00 0.00 96 1016.3
20211025024515 20 0 1.6 16.1 0.00 0.00 0.00 96 1016.3
20211025024012 20 185 3.2 16.1 0.00 0.00 0.00 96 1016.2
20211025023515 20 118 3.2 16.1 0.00 0.00 0.00 97 1016.4
20211025023042 20 66 3.2 16.1 0.00 0.00 0.00 97 1016.3
20211025022517 20 155 3.2 12.9 0.00 0.00 0.00 97 1016.4
20211025022020 20 107 1.6 11.3 0.00 0.00 0.00 97 1016.4
20211025021520 20 203 1.6 11.3 0.00 0.00 0.00 96 1016.4
20211025021017 20 0 0.0 4.8 0.00 0.00 0.00 96 1016.5
20211025020516 20 0 0.0 4.8 0.00 0.00 0.00 96 1016.5
20211025020014 20 53 0.0 3.2 0.00 0.00 0.00 96 1016.5
20211025015518 20 0 0.0 3.2 0.00 0.00 0.00 96 1016.5
20211025015012 20 0 0.0 1.6 0.00 0.00 0.00 96 1016.4
20211025014541 20 53 0.0 8.0 0.00 0.00 0.00 96 1016.3
20211025014016 20 0 0.0 8.0 0.00 0.00 0.00 96 1016.3
20211025013514 20 0 0.0 8.0 0.00 0.00 0.00 96 1016.1
20211025013024 20 0 0.0 6.4 0.00 0.00 0.00 96 1016.3
20211025012514 20 0 1.6 8.0 0.00 0.00 0.00 96 1016.2
20211025012013 20 53 1.6 8.0 0.00 0.00 0.00 96 1016.2
20211025011520 20 59 1.6 8.0 0.00 0.00 0.00 96 1016.2
20211025011013 20 55 0.0 6.4 0.00 0.00 0.00 96 1016.2
20211025010513 20 55 1.6 6.4 0.00 0.00 0.00 96 1016.1
20211025010020 20 0 0.0 6.4 0.00 0.00 0.00 96 1016.0
20211025005514 20 0 0.0 8.0 0.00 0.00 0.00 96 1015.9
20211025005020 20 48 0.0 8.0 0.00 0.00 0.00 96 1016.0
20211025004516 20 40 0.0 3.2 0.00 0.00 0.00 96 1015.8
20211025004018 20 0 0.0 4.8 0.00 0.00 0.00 96 1016.0
20211025003515 20 0 0.0 4.8 0.00 0.00 0.00 96 1016.0
20211025003023 20 41 1.6 6.4 0.00 0.00 0.00 96 1015.7
20211025002519 20 0 1.6 6.4 0.00 0.00 0.00 96 1015.8
20211025002015 20 40 0.0 1.6 0.00 0.00 0.00 96 1015.6
20211025001532 20 0 0.0 0.0 0.00 0.00 0.00 96 1015.6
20211025001013 20 0 0.0 1.6 0.00 0.00 0.00 96 1015.7
20211025000529 20 0 0.0 3.2 0.00 0.00 0.00 96 1015.7
20211025000024 20 0 0.0 3.2 0.00 0.00 0.00 96 1015.5
20211024235513 20 0 0.0 0.0 0.00 0.00 0.00 96 1015.7
20211024235012 20 0 0.0 0.0 0.00 0.00 0.00 96 1015.6
20211024234539 20 0 0.0 3.2 0.00 0.00 0.00 96 1015.6
20211024234021 20 0 0.0 3.2 0.00 0.00 0.00 96 1015.5
20211024233517 20 0 0.0 1.6 0.00 0.00 0.00 96 1015.6
20211024233014 20 0 0.0 1.6 0.00 0.00 0.00 95 1015.5
20211024232518 20 0 0.0 3.2 0.00 0.00 0.00 95 1015.5
20211024232012 20 0 0.0 3.2 0.00 0.00 0.00 95 1015.3
20211024231520 20 0 0.0 3.2 0.00 0.00 0.00 95 1015.4
20211024231016 20 0 0.0 1.6 0.00 0.00 0.00 95 1015.2
20211024230518 20 0 0.0 3.2 0.00 0.00 0.00 95 1015.3
20211024230015 20 0 0.0 3.2 0.00 0.00 0.00 95 1015.4
20211024225517 20 41 0.0 3.2 0.00 0.00 0.00 95 1015.3
20211024225012 20 0 0.0 3.2 0.00 0.00 0.00 95 1015.5
20211024224514 20 0 0.0 3.2 0.00 0.00 0.00 95 1015.4
20211024224014 20 40 0.0 1.6 0.00 0.00 0.00 94 1015.4
20211024223514 20 0 0.0 6.4 0.00 0.00 0.00 94 1015.4
20211024223042 20 0 0.0 6.4 0.00 0.00 0.00 94 1015.3
20211024222514 20 25 1.6 6.4 0.00 0.00 0.00 94 1015.2
20211024222013 20 55 1.6 6.4 0.00 0.00 0.00 94 1015.2
20211024221521 20 0 0.0 6.4 0.00 0.00 0.00 94 1015.4
20211024221013 20 0 0.0 6.4 0.00 0.00 0.00 94 1015.6
20211024220512 20 0 0.0 6.4 0.00 0.00 0.00 94 1015.6
20211024220028 21 0 1.6 6.4 0.00 0.00 0.00 94 1015.5
20211024215516 21 56 1.6 6.4 0.00 0.00 0.00 94 1015.7
20211024215014 21 321 1.6 6.4 0.00 0.00 0.00 94 1015.9
20211024214527 21 0 0.0 4.8 0.00 0.00 0.00 94 1015.9
20211024214036 21 73 1.6 3.2 0.00 0.00 0.00 94 1015.6
20211024213532 20 73 0.0 3.2 0.00 0.00 0.00 94 1015.4
20211024213024 20 73 0.0 3.2 0.00 0.00 0.00 94 1015.3
20211024212516 20 0 0.0 1.6 0.00 0.00 0.00 93 1015.7
20211024212013 20 0 0.0 3.2 0.00 0.00 0.00 93 1015.6
20211024211541 20 0 0.0 3.2 0.00 0.00 0.00 93 1015.7
20211024211012 20 0 0.0 0.0 0.00 0.00 0.00 92 1015.5
20211024210516 20 0 0.0 0.0 0.00 0.00 0.00 92 1015.5
20211024210031 20 0 0.0 0.0 0.00 0.00 0.00 92 1015.5
20211024205517 21 0 0.0 1.6 0.00 0.00 0.00 91 1015.6
20211024205014 21 0 0.0 3.2 0.00 0.00 0.00 91 1015.5
20211024204546 21 0 0.0 3.2 0.00 0.00 0.00 90 1015.4
20211024204012 21 0 0.0 3.2 0.00 0.00 0.00 89 1015.6
20211024203517 21 0 0.0 3.2 0.00 0.00 0.00 89 1015.7
20211024203049 21 0 0.0 3.2 0.00 0.00 0.00 87 1015.8
20211024202512 21 0 0.0 4.8 0.00 0.00 0.00 87 1015.8
20211024202017 21 73 0.0 4.8 0.00 0.00 0.00 85 1015.8
20211024201522 22 73 0.0 4.8 0.00 0.00 0.00 84 1015.8
20211024201012 22 0 0.0 3.2 0.00 0.00 0.00 83 1015.7
20211024200512 22 0 0.0 3.2 0.00 0.00 0.00 83 1015.7
20211024200029 22 0 0.0 1.6 0.00 0.00 0.00 82 1015.8
20211024195515 22 73 0.0 3.2 0.00 0.00 0.00 82 1015.8
20211024195017 22 0 0.0 3.2 0.00 0.00 0.00 80 1015.8
20211024194540 22 0 0.0 4.8 0.00 0.00 0.00 81 1015.7
20211024194013 22 0 0.0 4.8 0.00 0.00 0.00 81 1015.7
20211024193513 22 44 0.0 8.0 0.00 0.00 0.00 80 1015.7
20211024193016 22 0 0.0 8.0 0.00 0.00 0.00 81 1015.8
20211024192513 22 0 0.0 9.7 0.00 0.00 0.00 82 1015.9
20211024192015 22 64 0.0 9.7 0.00 0.00 0.00 82 1015.8
20211024191534 22 75 0.0 4.8 0.00 0.00 0.00 83 1015.9
20211024191013 22 67 0.0 4.8 0.00 0.00 0.00 84 1016.0
20211024190514 21 67 0.0 8.0 0.00 0.00 0.00 82 1016.0
20211024190013 21 0 1.6 8.0 0.00 0.00 0.00 83 1015.9
20211024185512 21 44 1.6 6.4 0.00 0.00 0.00 82 1016.0
20211024185013 21 0 0.0 3.2 0.00 0.00 0.00 82 1016.0
20211024184522 21 0 0.0 3.2 0.00 0.00 0.00 83 1016.1
20211024184047 21 0 0.0 3.2 0.00 0.00 0.00 82 1016.1
20211024183523 21 0 0.0 4.8 0.00 0.00 0.00 81 1016.1
20211024183021 22 44 1.6 4.8 0.00 0.00 0.00 81 1016.2
20211024182514 22 0 0.0 4.8 0.00 0.00 0.00 79 1016.4
20211024182012 22 69 0.0 4.8 0.00 0.00 0.00 79 1016.5
20211024181531 22 67 0.0 4.8 0.00 0.00 0.00 80 1016.6
20211024181020 22 67 0.0 4.8 0.00 0.00 0.00 79 1016.7
20211024180514 22 67 0.0 3.2 0.00 0.00 0.00 78 1016.8
20211024180034 22 0 0.0 4.8 0.00 0.00 0.00 79 1016.9
20211024175535 22 0 0.0 6.4 0.00 0.00 0.00 79 1016.8
20211024175015 22 0 0.0 6.4 0.00 0.00 0.00 79 1016.9
20211024174532 22 61 0.0 6.4 0.00 0.00 0.00 78 1016.9
20211024174012 22 0 0.0 4.8 0.00 0.00 0.00 78 1017.2
20211024173526 22 0 0.0 4.8 0.00 0.00 0.00 79 1017.3
20211024173016 22 63 0.0 4.8 0.00 0.00 0.00 76 1017.4
20211024172512 22 57 0.0 3.2 0.00 0.00 0.00 76 1017.4
20211024172016 22 0 0.0 4.8 0.00 0.00 0.00 77 1017.7
20211024171515 22 0 0.0 4.8 0.00 0.00 0.00 78 1017.7
20211024171018 22 0 1.6 4.8 0.00 0.00 0.00 77 1017.7
20211024170514 21 0 0.0 3.2 0.00 0.00 0.00 77 1017.8
20211024170014 21 84 0.0 6.4 0.00 0.00 0.00 77 1018.0
20211024165516 21 0 0.0 6.4 0.00 0.00 0.00 78 1018.0
20211024165014 21 0 0.0 6.4 0.00 0.00 0.00 78 1018.2
20211024164519 21 0 0.0 4.8 0.00 0.00 0.00 79 1018.1
20211024164028 21 58 1.6 8.0 0.00 0.00 0.00 79 1018.2
20211024163513 21 0 0.0 8.0 0.00 0.00 0.00 79 1018.2
20211024163027 21 55 0.0 3.2 0.00 0.00 0.00 79 1018.3
20211024162514 21 0 0.0 3.2 0.00 0.00 0.00 80 1018.6
20211024162012 21 0 0.0 3.2 0.00 0.00 0.00 80 1018.6
20211024161513 21 0 0.0 1.6 0.00 0.00 0.00 80 1018.7
20211024161013 21 0 0.0 3.2 0.00 0.00 0.00 80 1018.8
20211024160520 21 0 0.0 3.2 0.00 0.00 0.00 81 1018.7
20211024160017 20 0 0.0 3.2 0.00 0.00 0.00 80 1018.8
20211024155515 20 55 0.0 4.8 0.00 0.00 0.00 80 1018.7
20211024155014 20 0 0.0 4.8 0.00 0.00 0.00 79 1018.7
20211024154527 20 55 0.0 6.4 0.00 0.00 0.00 81 1018.8
20211024154014 20 0 0.0 6.4 0.00 0.00 0.00 80 1018.8
20211024153514 20 117 0.0 4.8 0.00 0.00 0.00 79 1018.8
20211024153027 20 117 0.0 4.8 0.00 0.00 0.00 82 1018.8
20211024152515 20 0 0.0 3.2 0.00 0.00 0.00 82 1018.9
20211024152033 20 0 0.0 3.2 0.00 0.00 0.00 80 1018.9
20211024151518 20 0 0.0 3.2 0.00 0.00 0.00 81 1018.9
20211024151014 20 0 0.0 1.6 0.00 0.00 0.00 82 1018.8
20211024150517 20 0 0.0 3.2 0.00 0.00 0.00 82 1018.6
20211024150020 19 0 0.0 4.8 0.00 0.00 0.00 82 1018.7
20211024145517 19 0 0.0 4.8 0.00 0.00 0.00 84 1018.7
20211024145023 19 0 0.0 4.8 0.00 0.00 0.00 83 1018.6
20211024144545 19 0 0.0 3.2 0.00 0.00 0.00 82 1018.4
20211024144015 19 0 0.0 3.2 0.00 0.00 0.00 83 1018.5
20211024143516 18 0 0.0 4.8 0.00 0.00 0.00 82 1018.4
20211024143020 18 0 0.0 4.8 0.00 0.00 0.00 83 1018.5
20211024142516 18 0 0.0 4.8 0.00 0.00 0.00 85 1018.4
20211024142017 18 85 0.0 4.8 0.00 0.00 0.00 85 1018.3
20211024141545 18 0 0.0 3.2 0.00 0.00 0.00 87 1018.2
20211024141016 18 0 0.0 3.2 0.00 0.00 0.00 88 1018.2
20211024140514 17 0 0.0 6.4 0.00 0.00 0.00 89 1018.1
20211024140034 17 0 0.0 6.4 0.00 0.00 0.00 89 1018.1
20211024135529 17 0 0.0 3.2 0.00 0.00 0.00 89 1018.1
20211024135018 17 0 0.0 1.6 0.00 0.00 0.00 90 1018.2
20211024134515 16 0 0.0 3.2 0.00 0.00 0.00 90 1018.1
20211024134016 16 0 0.0 3.2 0.00 0.00 0.00 91 1018.1
20211024133514 16 78 0.0 6.4 0.00 0.00 0.00 91 1018.1
20211024133021 15 0 0.0 6.4 0.00 0.00 0.00 92 1018.2
20211024132515 15 0 0.0 4.8 0.00 0.00 0.00 93 1018.1
20211024132031 15 0 0.0 4.8 0.00 0.00 0.00 93 1018.1
20211024131542 15 0 0.0 4.8 0.00 0.00 0.00 94 1018.1
20211024131011 15 0 0.0 1.6 0.00 0.00 0.00 94 1018.0
20211024130515 15 0 0.0 1.6 0.00 0.00 0.00 94 1018.0
20211024130016 14 0 0.0 1.6 0.00 0.00 0.00 94 1018.0
20211024125532 14 0 0.0 1.6 0.00 0.00 0.00 94 1017.8
20211024125019 14 0 0.0 1.6 0.00 0.00 0.00 94 1017.8
20211024124538 14 0 0.0 1.6 0.00 0.00 0.00 94 1017.7
20211024124020 14 0 0.0 0.0 0.00 0.00 0.00 94 1017.7
20211024123517 13 0 0.0 0.0 0.00 0.00 0.00 94 1017.7
20211024123033 13 0 0.0 0.0 0.00 0.00 0.00 93 1017.6
20211024122514 13 0 0.0 0.0 0.00 0.00 0.00 94 1017.4
20211024122014 13 0 0.0 0.0 0.00 0.00 0.00 94 1017.3
20211024121523 13 0 0.0 4.8 0.00 0.00 0.00 94 1017.3
20211024121016 13 0 0.0 4.8 0.00 0.00 0.00 94 1017.4
20211024120514 13 0 0.0 4.8 0.00 0.00 0.00 94 1017.2
20211024120044 13 62 1.6 4.8 0.00 0.00 0.00 93 1017.2
20211024115514 13 0 1.6 4.8 0.00 0.00 0.00 93 1017.2
20211024115030 13 62 0.0 3.2 0.00 0.00 0.00 93 1017.2
20211024114519 14 0 0.0 0.0 0.00 0.00 0.00 93 1017.2
20211024114011 14 0 0.0 0.0 0.00 0.00 0.00 93 1017.3
20211024113515 14 0 0.0 0.0 0.00 0.00 0.00 93 1017.2
20211024113025 14 0 0.0 0.0 0.00 0.00 0.00 93 1017.1
20211024112516 14 0 0.0 1.6 0.00 0.00 0.00 92 1017.0
20211024112015 14 0 0.0 1.6 0.00 0.00 0.00 93 1016.8
20211024111521 14 0 0.0 3.2 0.00 0.00 0.00 93 1016.8
20211024111015 14 0 0.0 4.8 0.00 0.00 0.00 93 1016.7
20211024110522 14 0 0.0 4.8 0.00 0.00 0.00 94 1016.7
20211024110025 14 0 0.0 3.2 0.00 0.00 0.00 94 1016.8
20211024105521 14 0 0.0 0.0 0.00 0.00 0.00 94 1016.7
20211024105017 14 0 0.0 0.0 0.00 0.00 0.00 94 1016.7
20211024104535 14 0 0.0 0.0 0.00 0.00 0.00 94 1016.8
20211024104015 14 0 0.0 0.0 0.00 0.00 0.00 94 1016.8
20211024103516 14 0 0.0 0.0 0.00 0.00 0.00 94 1016.8
20211024103030 14 0 0.0 3.2 0.00 0.00 0.00 94 1016.9
20211024102512 14 0 0.0 3.2 0.00 0.00 0.00 94 1016.8
20211024102017 14 0 0.0 3.2 0.00 0.00 0.00 94 1016.8
20211024101519 14 0 0.0 3.2 0.00 0.00 0.00 94 1016.8
20211024101015 14 55 0.0 1.6 0.00 0.00 0.00 94 1017.0
20211024100515 14 0 0.0 3.2 0.00 0.00 0.00 94 1016.7
20211024100023 14 0 0.0 4.8 0.00 0.00 0.00 94 1016.6
20211024095527 14 55 1.6 4.8 0.00 0.00 0.00 94 1016.6
20211024095015 14 0 0.0 4.8 0.00 0.00 0.00 94 1016.7
20211024094530 14 54 0.0 4.8 0.00 0.00 0.00 94 1016.7
20211024094021 14 54 0.0 3.2 0.00 0.00 0.00 94 1016.7
20211024093512 14 0 0.0 3.2 0.00 0.00 0.00 94 1016.8
20211024093025 14 0 0.0 4.8 0.00 0.00 0.00 94 1016.6
20211024092514 14 0 0.0 4.8 0.00 0.00 0.00 94 1016.6
20211024092013 14 0 0.0 4.8 0.00 0.00 0.00 94 1016.6
20211024091528 14 51 0.0 4.8 0.00 0.00 0.00 95 1016.7
20211024091017 14 0 0.0 4.8 0.00 0.00 0.00 94 1016.8
20211024090512 14 0 1.6 4.8 0.00 0.00 0.00 94 1016.7
20211024090016 14 42 1.6 4.8 0.00 0.00 0.00 94 1016.8
20211024085515 14 42 1.6 3.2 0.00 0.00 0.00 94 1016.8
20211024085015 15 0 0.0 0.0 0.00 0.00 0.00 94 1016.9
20211024084536 15 0 0.0 0.0 0.00 0.00 0.00 94 1016.9
20211024084015 15 0 0.0 1.6 0.00 0.00 0.00 94 1017.0
20211024083515 15 0 0.0 1.6 0.00 0.00 0.00 94 1016.9
20211024083034 15 0 0.0 0.0 0.00 0.00 0.00 94 1016.8
20211024082519 15 0 0.0 0.0 0.00 0.00 0.00 95 1016.7
20211024082017 15 0 0.0 0.0 0.00 0.00 0.00 94 1016.7
20211024081551 15 0 0.0 0.0 0.00 0.00 0.00 95 1016.8
20211024081013 15 0 0.0 0.0 0.00 0.00 0.00 94 1016.9
20211024080513 15 0 0.0 0.0 0.00 0.00 0.00 94 1017.0
20211024080035 15 0 0.0 0.0 0.00 0.00 0.00 94 1016.8
20211024075514 15 0 0.0 0.0 0.00 0.00 0.00 94 1016.8
20211024075016 15 0 0.0 0.0 0.00 0.00 0.00 94 1016.7
20211024074517 15 0 0.0 0.0 0.00 0.00 0.00 94 1016.8
20211024074013 15 0 0.0 0.0 0.00 0.00 0.00 94 1016.8
20211024073514 15 0 0.0 0.0 0.00 0.00 0.00 95 1016.8
20211024073019 15 0 0.0 0.0 0.00 0.00 0.00 95 1016.8
20211024072512 15 0 0.0 0.0 0.00 0.00 0.00 95 1016.8
20211024072016 15 0 0.0 0.0 0.00 0.00 0.00 95 1016.7
20211024071518 15 0 0.0 0.0 0.00 0.00 0.00 95 1016.8
20211024071014 15 0 0.0 0.0 0.00 0.00 0.00 95 1017.0
20211024070513 16 0 0.0 0.0 0.00 0.00 0.00 95 1017.0
20211024070022 16 0 0.0 0.0 0.00 0.00 0.00 95 1017.1
20211024065514 16 0 0.0 0.0 0.00 0.00 0.00 95 1017.1
20211024065014 16 0 0.0 0.0 0.00 0.00 0.00 95 1017.2
20211024064516 16 0 0.0 3.2 0.00 0.00 0.00 95 1017.1
20211024064020 16 0 0.0 3.2 0.00 0.00 0.00 95 1017.1
20211024063513 16 0 0.0 0.0 0.00 0.00 0.00 96 1017.2
20211024063018 16 0 0.0 0.0 0.00 0.00 0.00 96 1017.1
20211024062515 16 0 0.0 3.2 0.00 0.00 0.00 96 1017.2
20211024062013 16 0 0.0 4.8 0.00 0.00 0.00 95 1017.3
20211024061524 16 38 1.6 4.8 0.00 0.00 0.00 95 1017.1
20211024061015 16 38 0.0 4.8 0.00 0.00 0.00 95 1017.2
20211024060513 16 38 0.0 3.2 0.00 0.00 0.00 96 1017.3
20211024060036 16 0 0.0 4.8 0.00 0.00 0.00 95 1017.3
20211024055513 16 38 0.0 4.8 0.00 0.00 0.00 95 1017.2
20211024055014 16 38 1.6 4.8 0.00 0.00 0.00 96 1017.3
20211024054518 16 38 1.6 4.8 0.00 0.00 0.00 95 1017.2
20211024054014 16 38 0.0 4.8 0.00 0.00 0.00 96 1017.2
20211024053523 16 0 1.6 4.8 0.00 0.00 0.00 95 1017.2
20211024053042 16 0 0.0 3.2 0.00 0.00 0.00 95 1017.1
20211024052514 16 0 0.0 0.0 0.00 0.00 0.00 96 1017.1
20211024052014 16 0 0.0 0.0 0.00 0.00 0.00 96 1017.2
20211024051526 16 0 0.0 0.0 0.00 0.00 0.00 96 1017.2
20211024051014 16 0 0.0 0.0 0.00 0.00 0.00 96 1017.2
20211024050513 16 0 0.0 0.0 0.00 0.00 0.00 95 1017.3
20211024050019 16 0 0.0 0.0 0.00 0.00 0.00 95 1017.2
20211024045514 16 0 0.0 0.0 0.00 0.00 0.00 95 1017.2
20211024045014 16 0 0.0 0.0 0.00 0.00 0.00 95 1017.3
20211024044519 16 0 0.0 0.0 0.00 0.00 0.00 95 1017.2
20211024044013 16 0 0.0 0.0 0.00 0.00 0.00 95 1017.3
20211024043513 16 0 0.0 0.0 0.00 0.00 0.00 95 1017.2
20211024043019 16 0 0.0 0.0 0.00 0.00 0.00 95 1017.3
20211024042524 16 0 0.0 0.0 0.00 0.00 0.00 95 1017.4
20211024042014 16 0 0.0 0.0 0.00 0.00 0.00 95 1017.3
20211024041541 16 0 0.0 0.0 0.00 0.00 0.00 95 1017.2
20211024041014 16 0 0.0 0.0 0.00 0.00 0.00 95 1017.2
20211024040514 16 0 0.0 0.0 0.00 0.00 0.00 95 1017.2
20211024040016 16 0 0.0 0.0 0.00 0.00 0.00 95 1017.2
20211024035513 16 0 0.0 0.0 0.00 0.00 0.00 94 1017.2
20211024035023 16 0 0.0 0.0 0.00 0.00 0.00 94 1017.2
20211024034540 16 0 0.0 0.0 0.00 0.00 0.00 94 1017.3
20211024034014 16 0 0.0 0.0 0.00 0.00 0.00 94 1017.3